Wind_Speed
33 33 33 34 34 36 37 38 39 40 42 44 45 45 44 45 45 45 46 46 45 45 45 45 46 46 46 46 46 47 45 45 45 44 44 44 44 43 43 43 42 40 39 40
32 33 32 32 33 35 35 36 37 38 40 43 44 45 43 44 45 44 44 45 44 45 46 45 45 45 45 46 46 46 45 45 45 45 44 43 44 44 45 45 44 43 41 41
30 30 30 32 32 33 34 35 36 38 39 41 43 44 41 42 42 43 43 44 43 44 44 44 45 46 44 45 45 45 44 45 45 45 45 44 43 43 44 44 45 46 45 43
29 29 30 30 31 32 33 34 35 36 37 38 39 43 39 39 40 40 41 43 42 43 42 43 44 46 45 44 44 44 43 44 44 45 44 44 43 43 43 44 45 45 46 45
28 28 29 29 30 31 32 32 33 34 36 37 36 40 37 38 38 38 40 41 42 42 41 42 43 43 44 44 45 45 44 44 44 44 43 43 43 42 42 43 44 44 44 43
27 28 28 28 29 30 31 31 31 33 34 36 34 36 35 34 35 36 38 39 40 42 41 40 41 42 43 44 45 45 46 44 43 43 43 44 44 43 42 42 42 43 44 44
26 26 27 27 28 28 29 30 31 31 31 32 31 33 33 32 33 34 35 36 38 40 40 40 40 40 41 42 43 43 44 43 43 44 44 45 44 43 42 42 42 43 45 45
26 25 25 25 26 27 28 28 29 31 32 30 30 31 30 31 32 32 33 34 35 37 37 38 39 39 40 41 42 42 41 42 43 43 44 44 43 43 42 42 42 43 45 46
25 24 24 24 24 26 26 26 27 29 30 30 29 28 28 28 29 30 31 32 33 35 35 36 37 39 40 40 41 41 41 41 41 41 42 42 41 41 41 42 43 44 45 46
24 24 22 23 24 25 26 25 25 27 29 29 27 26 25 26 26 26 27 29 31 33 33 34 35 37 38 40 40 39 40 40 40 41 41 41 40 40 41 41 42 43 44 45
24 24 23 23 23 24 24 24 25 26 27 27 27 25 24 24 23 24 24 26 28 31 31 32 34 35 36 38 39 38 38 39 39 40 40 41 40 41 41 41 42 42 41 42
23 23 23 22 23 24 24 23 23 24 25 26 27 25 23 22 23 23 23 23 25 27 28 30 32 33 35 36 37 38 38 38 38 39 38 38 40 41 41 41 41 41 42 42
22 23 23 22 22 23 23 23 23 24 24 25 26 24 23 22 23 23 23 22 24 25 26 27 30 31 34 35 36 37 37 37 37 39 38 38 38 40 40 41 42 42 43 42
21 22 22 22 22 23 23 23 23 24 25 25 25 24 22 22 21 22 23 23 24 24 24 26 28 29 31 33 34 35 36 37 38 38 38 39 39 39 40 41 42 42 42 42
22 22 21 21 22 22 22 22 22 23 24 25 24 23 21 22 22 22 23 24 24 25 25 25 26 28 30 31 31 33 35 36 37 38 39 39 39 40 40 40 40 40 41 41
22 22 22 21 20 20 20 19 20 22 23 23 23 22 22 22 22 23 23 24 26 26 26 25 25 26 28 29 30 31 33 34 35 36 37 38 38 38 39 39 40 40 40 41
21 22 22 21 20 20 20 18 19 20 21 22 23 22 21 22 22 22 22 23 25 25 25 26 26 26 28 28 29 30 31 32 33 34 35 36 37 37 37 38 39 39 39 40
21 21 22 22 21 21 20 19 20 20 20 21 22 22 21 21 21 22 22 22 23 24 25 26 27 27 28 28 28 29 30 32 32 33 35 36 36 37 37 37 37 37 38 40
22 22 23 23 23 22 20 20 21 21 20 20 21 22 22 22 21 21 22 22 23 24 25 26 27 28 28 28 28 29 30 31 32 33 34 34 35 36 37 37 37 38 39 38
22 22 23 23 23 23 21 21 22 22 21 20 21 21 22 21 21 21 22 23 23 24 25 25 27 28 29 29 29 29 31 31 32 33 33 34 35 37 38 38 39 39 39 39
20 21 21 22 22 22 22 22 22 22 22 21 22 22 22 21 21 21 22 23 23 24 25 25 26 28 29 30 30 29 30 31 31 31 33 34 35 36 38 39 40 40 39 40
20 21 20 21 22 21 21 22 23 23 23 23 23 23 23 23 22 22 23 24 24 25 25 26 27 28 28 29 29 29 30 30 31 31 32 33 34 35 37 39 39 39 39 40
20 21 22 22 22 23 23 23 24 24 25 25 25 25 24 25 25 24 24 25 25 26 26 25 26 26 27 28 28 29 29 29 30 31 32 33 33 34 36 36 36 37 38 38
21 22 23 23 23 24 25 25 25 25 25 25 25 25 25 25 25 25 24 24 25 25 26 26 26 26 27 28 28 28 28 29 29 30 31 32 33 34 34 35 36 36 37 37
21 22 23 23 24 25 25 25 25 25 24 24 24 24 25 25 25 25 24 24 25 25 26 26 26 26 26 27 27 27 27 28 29 31 31 32 33 34 34 35 36 36 36 36
22 23 24 23 24 25 25 25 25 25 24 24 23 24 24 25 25 24 24 25 25 25 25 25 25 25 26 26 27 27 27 28 29 31 31 32 33 34 34 34 34 34 34 34
Wind_Direction
270 269 271 271 270 269 269 267 265 264 264 263 261 260 259 258 258 256 255 252 250 250 248 249 248 248 247 247 248 249 249 248 248 248 250 250 250 250 250 248 247 248 250 251
272 272 272 272 272 272 270 269 268 267 266 264 262 260 258 258 258 257 254 251 250 249 248 248 248 248 247 246 247 249 249 248 248 248 249 250 250 250 250 248 247 247 249 250
274 274 274 273 274 274 273 273 272 271 269 267 265 261 259 258 258 257 253 250 249 248 247 246 245 246 246 246 246 248 249 247 247 247 247 248 249 249 249 248 248 247 247 249
273 273 273 273 274 275 275 274 274 273 271 270 268 266 260 258 259 257 253 249 248 247 246 247 246 246 246 245 245 247 248 247 246 247 247 248 249 249 249 248 247 246 246 247
276 274 274 275 277 277 277 276 275 275 273 272 270 269 263 260 260 257 252 250 248 247 246 247 246 246 245 245 245 247 248 247 246 247 247 248 248 249 249 248 247 246 247 247
278 276 277 277 277 276 278 278 278 277 276 274 273 271 268 264 262 258 252 250 248 246 245 245 245 245 244 244 244 246 247 246 246 247 247 247 247 247 247 247 248 248 248 249
278 277 278 279 278 277 278 280 282 282 279 278 275 273 272 268 266 261 255 252 249 246 245 245 245 244 244 244 243 245 246 245 245 246 247 247 248 247 247 247 247 247 248 249
278 277 279 279 279 280 280 281 282 283 283 281 277 276 273 271 267 263 260 256 251 248 245 244 244 244 245 244 244 245 245 244 245 246 246 247 247 247 247 248 247 247 248 248
281 280 280 280 280 281 282 282 283 284 284 282 280 279 275 272 268 263 260 257 254 250 246 245 244 244 245 245 244 245 244 244 245 246 245 245 246 246 247 248 248 248 247 248
281 281 280 279 278 279 281 283 284 284 285 284 281 281 282 278 269 263 259 257 253 249 247 246 246 246 245 245 245 246 245 244 245 246 245 245 246 247 247 247 248 248 248 249
281 281 281 281 279 279 279 281 282 283 281 283 284 283 284 281 272 265 261 258 255 252 250 248 247 247 246 246 246 246 243 243 243 244 246 246 246 246 247 248 249 249 250 252
282 282 280 281 279 279 279 279 282 281 279 281 284 285 285 284 276 268 263 261 258 253 251 250 248 248 247 247 247 246 243 242 242 244 246 246 245 245 247 249 250 251 253 254
284 283 281 279 279 279 278 277 278 278 278 280 283 285 287 284 277 272 267 262 258 256 255 253 252 249 248 248 247 246 243 242 243 245 246 247 246 245 248 249 251 253 254 254
281 282 282 281 282 281 280 278 277 277 278 280 282 285 285 283 277 272 266 261 258 257 258 256 252 250 249 249 247 245 245 243 244 245 246 247 247 247 248 249 251 253 253 255
278 279 279 279 280 281 281 280 278 278 280 281 281 282 283 282 279 275 270 263 259 258 258 257 255 253 249 248 246 246 246 244 244 246 247 248 249 249 249 250 251 252 253 255
278 278 277 277 279 281 282 282 279 279 281 282 280 280 281 281 280 276 271 265 263 261 259 258 257 255 251 251 250 249 248 247 247 247 248 249 250 250 250 250 250 252 254 256
278 279 279 278 279 281 282 284 282 281 282 281 280 281 280 279 277 275 270 265 262 262 260 258 257 256 253 252 254 253 251 251 251 249 249 250 250 250 250 251 252 253 254 255
278 279 281 282 282 282 286 285 284 285 285 282 279 279 278 278 276 274 273 269 264 263 263 262 259 257 255 254 256 253 250 251 251 250 249 249 250 250 251 253 253 254 255 257
278 278 281 283 285 285 286 287 287 287 285 283 280 279 277 276 276 272 271 271 267 265 262 261 262 261 259 257 256 253 250 250 250 251 251 250 250 251 253 255 254 255 257 258
278 278 280 283 286 287 288 288 287 287 287 284 282 280 279 279 277 272 269 268 266 266 266 263 261 263 263 260 258 255 251 251 251 253 253 253 253 254 256 256 256 258 259 260
277 279 281 283 286 288 289 289 288 287 287 286 284 281 279 278 278 275 271 268 266 267 268 266 264 265 265 262 260 259 256 254 255 255 256 257 257 258 259 259 259 260 262 263
279 280 282 284 286 288 289 288 286 286 285 284 284 282 280 278 277 277 274 271 269 271 271 270 269 269 268 265 262 260 259 257 257 257 258 259 261 262 262 262 261 262 264 265
279 280 282 284 286 287 287 287 287 286 285 284 283 282 281 280 278 278 275 270 270 272 272 271 270 270 270 269 266 262 259 257 257 258 259 261 264 265 265 265 265 264 265 266
281 281 282 283 284 285 286 287 288 287 286 284 284 284 283 282 279 277 276 272 271 271 271 270 271 271 270 269 267 265 263 262 262 262 263 265 266 267 267 267 266 266 266 267
285 284 283 283 284 284 284 286 287 287 286 285 284 285 285 283 282 279 278 274 273 273 272 271 270 270 270 269 267 266 265 265 266 267 268 269 269 268 267 265 265 265 265 266
286 285 284 284 284 285 284 285 285 285 285 286 286 285 285 284 282 280 278 275 274 273 273 272 271 270 268 269 270 269 269 270 271 270 270 272 271 269 267 266 266 265 265 265
Height
5660 5661 5660 5660 5659 5659 5659 5659 5659 5660 5659 5658 5659 5661 5663 5663 5664 5666 5668 5670 5673 5677 5681 5683 5686 5689 5692 5695 5698 5702 5705 5709 5712 5716 5719 5722 5725 5728 5730 5733 5737 5739 5742 5744
5653 5652 5652 5651 5650 5650 5649 5649 5649 5650 5648 5646 5647 5648 5651 5651 5652 5654 5656 5658 5661 5665 5668 5671 5675 5678 5681 5684 5687 5690 5693 5697 5701 5704 5708 5711 5714 5717 5720 5723 5727 5729 5732 5735
5644 5645 5644 5643 5642 5641 5641 5640 5640 5639 5638 5636 5635 5636 5640 5641 5641 5642 5644 5646 5649 5653 5656 5660 5663 5667 5670 5673 5677 5680 5682 5685 5689 5693 5696 5699 5702 5705 5709 5712 5716 5719 5722 5725
5637 5637 5636 5635 5634 5633 5633 5632 5630 5629 5627 5626 5625 5623 5630 5630 5630 5631 5633 5635 5638 5642 5645 5648 5652 5656 5659 5663 5666 5669 5672 5674 5678 5681 5684 5688 5691 5695 5699 5702 5705 5709 5712 5715
5630 5630 5628 5628 5627 5625 5625 5623 5622 5620 5618 5617 5616 5613 5619 5620 5621 5622 5623 5625 5627 5631 5634 5638 5641 5644 5648 5651 5655 5658 5661 5664 5667 5670 5674 5677 5680 5684 5688 5691 5694 5698 5702 5705
5624 5622 5621 5621 5620 5618 5617 5616 5614 5612 5610 5609 5609 5606 5608 5610 5612 5612 5613 5615 5617 5621 5624 5628 5631 5634 5637 5640 5644 5647 5650 5653 5656 5660 5663 5667 5670 5674 5677 5680 5684 5688 5691 5695
5617 5616 5615 5614 5613 5612 5610 5609 5606 5604 5602 5602 5601 5599 5601 5603 5602 5602 5604 5605 5607 5611 5614 5618 5621 5624 5627 5630 5633 5636 5639 5642 5645 5649 5652 5656 5659 5663 5667 5670 5674 5678 5681 5685
5610 5610 5609 5607 5606 5605 5604 5602 5600 5597 5595 5595 5594 5592 5595 5594 5594 5593 5594 5595 5597 5601 5604 5608 5611 5614 5617 5620 5622 5625 5628 5631 5635 5638 5642 5645 5649 5653 5656 5660 5664 5667 5671 5674
5603 5604 5603 5601 5600 5599 5597 5596 5594 5592 5588 5587 5586 5586 5587 5587 5586 5586 5586 5587 5589 5592 5595 5599 5602 5604 5607 5609 5612 5615 5617 5621 5624 5628 5631 5635 5638 5642 5646 5650 5653 5657 5660 5664
5597 5597 5597 5596 5595 5593 5592 5590 5589 5586 5583 5580 5580 5580 5581 5580 5579 5579 5579 5580 5582 5584 5587 5589 5592 5594 5597 5599 5601 5604 5606 5610 5614 5617 5621 5625 5629 5633 5637 5640 5644 5647 5651 5654
5592 5591 5591 5590 5589 5588 5587 5586 5583 5581 5579 5576 5574 5578 5575 5574 5573 5573 5573 5573 5575 5577 5578 5581 5583 5585 5587 5589 5591 5594 5597 5600 5604 5608 5611 5616 5620 5624 5628 5631 5635 5638 5641 5644
5586 5585 5585 5585 5583 5582 5581 5580 5579 5577 5575 5572 5569 5573 5570 5569 5568 5567 5568 5568 5569 5570 5571 5572 5574 5576 5578 5580 5582 5585 5588 5591 5595 5598 5602 5606 5610 5614 5618 5622 5625 5628 5632 5634
5580 5580 5579 5579 5580 5578 5576 5575 5573 5572 5570 5567 5565 5569 5565 5564 5562 5562 5562 5562 5563 5563 5564 5565 5566 5568 5570 5572 5574 5577 5579 5583 5586 5590 5594 5597 5601 5605 5608 5612 5616 5619 5622 5625
5575 5575 5575 5575 5573 5571 5570 5570 5568 5566 5564 5563 5562 5562 5561 5559 5557 5557 5557 5557 5557 5558 5558 5559 5560 5561 5563 5564 5567 5569 5571 5574 5578 5582 5585 5589 5592 5595 5599 5602 5606 5609 5612 5615
5570 5570 5569 5569 5567 5566 5565 5564 5563 5561 5560 5558 5557 5556 5556 5553 5552 5552 5551 5551 5552 5552 5552 5553 5553 5555 5556 5558 5559 5561 5564 5567 5570 5573 5576 5580 5583 5586 5589 5593 5596 5599 5602 5605
5565 5565 5564 5564 5563 5561 5560 5560 5558 5556 5555 5553 5552 5552 5550 5548 5547 5547 5546 5546 5546 5547 5547 5547 5548 5549 5550 5551 5553 5555 5557 5559 5561 5565 5568 5571 5574 5577 5580 5583 5586 5589 5592 5595
5560 5560 5559 5559 5558 5556 5556 5556 5554 5552 5550 5549 5547 5547 5545 5544 5542 5542 5541 5541 5541 5541 5542 5542 5542 5543 5544 5544 5545 5547 5550 5552 5554 5557 5559 5562 5565 5568 5571 5574 5577 5580 5582 5585
5556 5555 5553 5553 5553 5552 5554 5550 5548 5547 5546 5543 5542 5541 5540 5539 5538 5537 5536 5535 5536 5536 5536 5536 5536 5536 5537 5538 5539 5540 5542 5544 5547 5549 5552 5554 5557 5559 5563 5565 5568 5570 5573 5575
5551 5550 5548 5548 5546 5547 5548 5545 5543 5542 5541 5539 5537 5536 5535 5534 5533 5532 5531 5530 5530 5530 5530 5530 5530 5530 5530 5530 5532 5533 5535 5537 5539 5541 5544 5546 5548 5551 5554 5556 5559 5561 5563 5565
5545 5545 5544 5542 5541 5541 5543 5540 5537 5537 5536 5534 5532 5530 5529 5528 5528 5528 5527 5525 5525 5524 5524 5524 5524 5524 5524 5524 5524 5526 5528 5529 5532 5534 5536 5538 5540 5542 5544 5547 5549 5551 5552 5554
5540 5540 5539 5537 5536 5536 5536 5534 5533 5532 5531 5529 5527 5525 5524 5523 5522 5521 5520 5520 5519 5518 5518 5517 5517 5517 5517 5516 5517 5518 5520 5522 5524 5526 5527 5529 5531 5533 5535 5537 5539 5540 5541 5543
5535 5534 5533 5532 5531 5533 5530 5528 5527 5526 5524 5522 5521 5519 5518 5517 5515 5514 5513 5513 5512 5512 5511 5510 5510 5510 5510 5509 5510 5511 5513 5514 5516 5517 5519 5520 5522 5523 5524 5526 5528 5529 5530 5532
5529 5529 5528 5528 5528 5526 5523 5522 5520 5518 5517 5516 5514 5513 5511 5510 5509 5508 5507 5506 5506 5505 5504 5504 5503 5503 5503 5503 5503 5504 5505 5506 5508 5509 5510 5511 5512 5513 5514 5516 5517 5518 5520 5521
5524 5523 5522 5521 5521 5519 5517 5516 5514 5512 5510 5509 5507 5506 5504 5503 5502 5501 5500 5499 5499 5498 5497 5497 5497 5497 5497 5497 5496 5497 5498 5499 5500 5501 5502 5502 5503 5504 5505 5505 5507 5508 5509 5510
5518 5516 5515 5515 5514 5513 5511 5509 5508 5506 5504 5502 5500 5499 5497 5496 5494 5493 5492 5492 5491 5490 5490 5489 5489 5489 5490 5490 5490 5490 5491 5491 5492 5493 5493 5493 5494 5494 5495 5495 5496 5498 5499 5500
5512 5510 5509 5508 5507 5505 5504 5502 5500 5499 5497 5495 5494 5492 5490 5489 5487 5486 5485 5484 5484 5483 5482 5482 5482 5482 5482 5483 5483 5483 5483 5483 5484 5484 5484 5484 5484 5484 5484 5485 5486 5487 5488 5489